Regional Weather Roundup
Issued by NWS

Home | Current Version | Previous Version | Text Only | Print | Product List | Glossary On
Versions: 1 2 3 4 5 6 7 8 9 10 11 12 13 14 15 16 17 18 19 20 21 22 23 24 25 26 27 28 29 30 31 32 33 34 35 36 37 38 39 40 41 42 43 44 45 46 47 48 49 50
000
ASMX46 KSGX 051811
RWRMX

MEXICAN WEATHER ROUNDUP
NATIONAL WEATHER SERVICE SAN DIEGO CA
1100 AM PDT SUN JUL 05 2015

BAJA CALIFORNIA

CITY           SKY/WX    TMP DP  RH WIND       PRES   REMARKS
ENSENADA NW      N/A     66  32  28 W3        29.98R
LA PAZ         PTSUNNY   91  50  24 S10       29.93F
LORETO         MOSUNNY   90  70  51 SE7       29.88S HX  95
MEXICALI       SUNNY     95  63  34 SE14      29.84R HX  96
S.J. DEL CABO  MOSUNNY   93  72  49 SE12      29.92F HX 100
TIJUANA        CLOUDY    68  55  64 NW6       30.03S

NORTHWESTERN MEXICO

CITY           SKY/WX    TMP DP  RH WIND       PRES   REMARKS
CHIHUAHUA      MOSUNNY   82  57  42 NE5       30.15F
CULIACAN       PTSUNNY   93  73  52 SE6       29.95F HX 102
GUAYMAS        MOSUNNY   91  81  70 CALM      29.87S HX 110
HERMOSILLO     MOSUNNY   93  72  49 SE5       29.96F HX 100
JUAREZ         PTSUNNY   86  66  51 SW14      30.05R
LOS MOCHIS     PTSUNNY   90  68  48 SE12      29.95R
OBREGON        MOSUNNY   93  68  43 SE13      29.90F HX  97

NORTHEASTERN MEXICO

CITY           SKY/WX    TMP DP  RH WIND       PRES   REMARKS
MATAMOROS      PTSUNNY   90  79  70 SE23      30.04S HX 105
MONCLOVA         N/A    N/A N/A N/A MISG        N/A
MONTERREY      PTSUNNY   82  70  65 E7        30.01F
NUEVO LAREDO   PTSUNNY   91  70  49 S9        29.99F HX  97
PIEDRAS NEGRAS MOSUNNY   88  72  58 SE7       30.01F
REYNOSA        PTSUNNY   88  70  55 SE12G23   30.00S
SALTILLO       PTSUNNY   88  61  40 S12       30.21S
TORREON        MOSUNNY   88  63  42 SE6       30.11F
VICTORIA       MOSUNNY   90  66  45 S22       30.03F

WESTERN MEXICO

CITY           SKY/WX    TMP DP  RH WIND       PRES   REMARKS
AGUASCALIENTES PTSUNNY   68  54  60 W9        30.35F
COLIMA         MOSUNNY   88  70  55 CALM      30.07F
DURANGO        PTSUNNY   73  59  60 SE5       30.30F
GUADALAJARA      N/A    N/A N/A N/A MISG        N/A
MANZANILLO     MOSUNNY   91  79  66 SW17      29.91  HX 107
MAZATLAN       MOSUNNY   88  73  62 S13       29.93F HX  96
PTO. VALLARTA  MOSUNNY   90  75  62 SW7       29.94F HX 100
TEPIC            N/A    N/A N/A N/A MISG        N/A
URUAPAN        PTSUNNY   72  64  78 S7        30.24F
ZACATECAS      PTSUNNY   72  54  53 CALM      30.35F

CENTRAL MEXICO

CITY           SKY/WX    TMP DP  RH WIND       PRES   REMARKS
CUERNAVACA     PTSUNNY   75  59  57 CALM      30.23F
LEON           PTSUNNY   72  57  60 S9        30.37F
MEXICO CITY    MOSUNNY   70  50  49 SE5       30.40F
MORELIA          N/A    N/A N/A N/A MISG        N/A
POZA RICA      PTSUNNY   88  77  70 CALM      30.03F HX 100
PUEBLA         PTSUNNY   70  52  52 SE7       30.40F
QUERETARO      PTSUNNY   73  57  56 E5        30.37F
S. LUIS POTOSI MOSUNNY   72  54  53 NE5       30.31F
TAMPICO        PTSUNNY   84  72  65 S5        30.05S
TOLUCA         PTSUNNY   64  46  52 SE5       30.48F
VERACRUZ       PTSUNNY   90  73  58 E3        30.03F HX  98

SOUTHERN MEXICO

CITY           SKY/WX    TMP DP  RH WIND       PRES   REMARKS
ACAPULCO       MOSUNNY   90  79  70 W9        29.88F HX 105
B. DE HUATULCO PTSUNNY   91  77  62 CALM      29.96F HX 105
MINATITLAN     PTSUNNY   84  68  58 N17       29.95S
OAXACA         PTSUNNY   75  54  46 S3        30.26F
PTO. ESCONDIDO MOSUNNY   88  75  66 E9        30.01S HX  97
TAPACHULA      MOSUNNY   91  77  62 CALM      29.90F HX 105
TUX. GUTIERREZ PTSUNNY   84  64  51 SW6       30.00F
VILLAHERMOSA   PTSUNNY   91  72  52 E18       29.99F HX  98
ZIHUATANEJO    MOSUNNY   91  75  59 SW12      29.89F HX 102

YUCATAN PENINSULA

CITY           SKY/WX    TMP DP  RH WIND       PRES   REMARKS
CAMPECHE       MOSUNNY   91  73  55 SE12G25   29.99F HX 100
CANCUN         MOSUNNY   88  77  70 E12       30.09S HX 100
CHETUMAL       MOSUNNY   88  77  70 E9        30.04F HX 100
C. DEL CARMEN  MOSUNNY   91  72  52 E20       29.99F HX  98
COZUMEL        PTSUNNY   86  77  74 E14       30.07F HX  97
MERIDA         PTSUNNY   93  73  52 S9        30.05F HX 102

$$




USA.gov is the U.S. government's official web portal to all federal, state and local government web resources and services.